Location: Churchill Northern Studies Centre
(58.7378°N, 93.8201°W)
Time: 22:59:57
(UTC-05:00)

Envisat - Pass Details

Date: 15 October 2017
Orbit: 764 x 766 km, 98.2° (Epoch: 23 October)

Event Time Altitude Azimuth Distance (km) Brightness Sun altitude
Exits shadow 18:43:02 - 107° (ESE) 2,908 5.4 -5.3°
Reaches altitude 10° 18:44:53 10° 96° (E) 2,309 4.9 -5.5°
Maximum altitude 18:48:38 21° 48° (NE) 1,665 4.3 -6.0°
Drops below altitude 10° 18:52:24 10° 0° (N) 2,318 5.4 -6.5°
Sets 18:55:11 0° 346° (NNW) 3,248 6.4 -6.8°
